TIANMU-1 14

Last updated on Wed Jul 02 2025 00:02:22 GMT+0000 (Coordinated Universal Time)

1 58648U 23205D 25182.62112289 .00004208 00000+0 18589-3 0 9999 2 58648 97.3659 204.7661 0010701 126.1198 234.1030 15.22215529 84093
UTC large
Height (km)
Speed (km/s)
/
Latitude / Longitude
Inclination (degrees)
Orbital Period (minutes)
Azimuth
Elevation
Range (km)
Doppler Factor

Next 0 passes for location: London (51.5072 / 0.1276)

Sorry there are no passes over London.